Regional Weather Roundup
Issued by NWS Green Bay, WI

Home | Current Version | Previous Version | Graphics & Text | Print | Product List | Glossary Off
Versions: 1 2 3 4 5 6 7 8 9 10 11 12 13 14 15 16 17 18 19 20 21 22 23 24 25 26 27 28 29 30 31 32 33 34 35 36 37 38 39 40 41 42 43 44 45 46 47 48 49 50

000
ASUS43 KGRB 260811
RWRGRB

NORTH-CENTRAL AND NORTHEAST WISCONSIN REGIONAL WEATHER ROUNDUP
NATIONAL WEATHER SERVICE GREEN BAY WI
300 AM CDT THU APR 26 2018

WIZ005-009-010>012-018-019-260900-
NORTH CENTRAL WISCONSIN

CITY           SKY/WX    TMP DP  RH WIND       PRES   REMARKS
IRONWOOD       FAIR      37  24  59 SW5       29.87F
MANITOWISH WTR FAIR      27  23  86 CALM      29.88F
ARBOR VITAE    FAIR      32  26  78 CALM      29.88F
EAGLE RIVER    FAIR      27  23  84 CALM      29.88F
LAND O LAKES   FAIR      26  23  90 CALM      29.90F
RHINELANDER    FAIR      30  23  75 CALM      29.89F
PHILLIPS       FAIR      29  26  87 CALM      29.89S
ANTIGO         FAIR      31  30  98 CALM      29.91F
TOMAHAWK       FAIR      27  23  86 CALM      29.90F
MERRILL        FAIR      28  26  92 CALM      29.92F
$$

WIZ013-073-260900-
NORTHEAST WISCONSIN

CITY           SKY/WX    TMP DP  RH WIND       PRES   REMARKS
IRON MOUNTAIN  FAIR      28  25  88 CALM      29.89F
MARINETTE      FAIR      27  25  92 CALM      29.94F
OCONTO         FAIR      29  27  92 CALM      29.93F
$$

WIZ017-030-035>037-045-260900-
CENTRAL WISCONSIN

CITY           SKY/WX    TMP DP  RH WIND       PRES   REMARKS
MEDFORD        FAIR      37  26  65 S3        29.90F
WAUSAU         FAIR      33  27  78 CALM      29.90F
MOSINEE        FAIR      36  28  75 SW3       29.92F
MARSHFIELD     FAIR      39  28  64 SW5       29.91F
WISC RAPIDS    FAIR      31  27  85 CALM      29.93F
STEVENS POINT  FAIR      29  27  94 CALM      29.93F
WAUPACA        FAIR      38  31  76 CALM      29.94S
SHAWANO        FAIR      32  30  91 CALM      29.92F
CLINTONVILLE   FAIR      35  29  82 CALM      29.92F
WAUTOMA        FAIR      29  26  89 CALM      29.95
$$

WIZ038-039-048-051-260900-
FOX VALLEY

CITY           SKY/WX    TMP DP  RH WIND       PRES   REMARKS
NWS GREEN BAY  FAIR      36  31  82 S5        29.93F
APPLETON       FAIR      36  30  80 SW5       29.92S
OSHKOSH        FAIR      38  31  76 SW5       29.93F
FOND DU LAC    FAIR      37  30  75 SW7       29.94F
$$

WIZ022-050-052-260900-
EAST CENTRAL WISCONSIN

CITY           SKY/WX    TMP DP  RH WIND       PRES   REMARKS
EPHRAIM        FAIR      34  25  71 SW3       29.92F
WASHINGTON ISL FAIR      26  25  94 CALM      29.92F
STURGEON BAY   FAIR      36  27  69 S5        29.94F
MANITOWOC      FAIR      34  28  79 CALM      29.95F
SHEBOYGAN      FAIR      32  28  85 SW6       29.94F FOG
$$

LMZ563-521-522-541>543-260900-
LAKESHORE

STATION/POSITION TIME  TEMP    WIND        PRES    VSBY  WAVE
                       AIR SEA DIR/SP/G                  HT/PER
                 (UTC) (F)     (DEG/KT/KT) (MB)    (MI)  (FT/S)
SHEBOYGAN LKSHOR 0800   38     240/  8/  9 1014.6F
KEWAUNEE LKSHORE 0742   36     280/  4/  5 1013.4F
NORTHPORT PIER   0800   30                 1013.5
SISTER BAY LKSHO 0657   33        CALM       N/A
MENOMINEE LKSHOR 0736   33     210/  1/  2 1013.4F
$$



USA.gov is the U.S. government's official web portal to all federal, state and local government web resources and services.